| time (UTC) | temp F | wind direction | speed MPH | gust MPH | rain 1hr in | rain 24hr in | rain mn in | humidity % | barometer mb |
| 20260904211827 | 89 | 101 | 5.0 | 11.0 | 0.00 | 0.05 | 0.03 | 87 | 1012.5 |
| 20260904211329 | 89 | 134 | 6.0 | 10.0 | 0.00 | 0.05 | 0.03 | 87 | 1012.6 |
| 20260904210833 | 89 | 178 | 4.0 | 10.0 | 0.00 | 0.05 | 0.03 | 87 | 1012.5 |
| 20260904210347 | 89 | 215 | 3.0 | 15.0 | 0.00 | 0.05 | 0.03 | 87 | 1012.6 |
| 20260904205831 | 89 | 226 | 7.0 | 15.0 | 0.00 | 0.05 | 0.03 | 87 | 1012.6 |
| 20260904205317 | 89 | 89 | 7.0 | 14.0 | 0.00 | 0.05 | 0.03 | 88 | 1012.7 |
| 20260904204825 | 89 | 144 | 8.0 | 14.0 | 0.00 | 0.05 | 0.03 | 88 | 1012.7 |
| 20260904204330 | 89 | 148 | 5.0 | 12.0 | 0.00 | 0.05 | 0.03 | 88 | 1012.7 |
| 20260904203817 | 89 | 149 | 6.0 | 13.0 | 0.00 | 0.05 | 0.03 | 89 | 1012.7 |
| 20260904203327 | 89 | 151 | 8.0 | 18.0 | 0.00 | 0.05 | 0.03 | 89 | 1012.8 |
| 20260904202835 | 89 | 107 | 10.0 | 18.0 | 0.00 | 0.05 | 0.03 | 89 | 1012.8 |
| 20260904202319 | 89 | 131 | 6.0 | 12.0 | 0.00 | 0.05 | 0.03 | 89 | 1012.9 |
| 20260904201828 | 89 | 171 | 6.0 | 13.0 | 0.00 | 0.05 | 0.03 | 89 | 1012.9 |
| 20260904201327 | 89 | 146 | 7.0 | 13.0 | 0.00 | 0.05 | 0.03 | 89 | 1013.0 |
| 20260904200836 | 89 | 123 | 7.0 | 12.0 | 0.00 | 0.05 | 0.03 | 90 | 1013.0 |
| 20260904200324 | 89 | 115 | 3.0 | 14.0 | 0.00 | 0.05 | 0.03 | 90 | 1013.0 |
| 20260904195829 | 89 | 150 | 5.0 | 14.0 | 0.00 | 0.05 | 0.03 | 90 | 1012.9 |
| 20260904195334 | 89 | 178 | 6.0 | 9.0 | 0.00 | 0.05 | 0.03 | 91 | 1013.0 |
| 20260904194846 | 89 | 143 | 3.0 | 10.0 | 0.00 | 0.05 | 0.03 | 91 | 1013.0 |
| 20260904194330 | 88 | 145 | 5.0 | 10.0 | 0.00 | 0.05 | 0.03 | 91 | 1012.9 |
| 20260904193834 | 88 | 140 | 5.0 | 17.0 | 0.00 | 0.05 | 0.03 | 91 | 1013.1 |
| 20260904193319 | 88 | 109 | 7.0 | 17.0 | 0.00 | 0.05 | 0.03 | 91 | 1013.2 |
| 20260904192829 | 88 | 138 | 8.0 | 12.0 | 0.00 | 0.05 | 0.03 | 91 | 1013.3 |
| 20260904192332 | 88 | 111 | 7.0 | 12.0 | 0.00 | 0.05 | 0.03 | 92 | 1013.4 |
| 20260904191820 | 87 | 157 | 6.0 | 11.0 | 0.00 | 0.05 | 0.03 | 91 | 1013.6 |
| 20260904191326 | 87 | 136 | 7.0 | 11.0 | 0.00 | 0.05 | 0.03 | 91 | 1013.7 |
| 20260904190831 | 87 | 126 | 6.0 | 12.0 | 0.00 | 0.05 | 0.03 | 92 | 1013.7 |
| 20260904190320 | 87 | 108 | 5.0 | 12.0 | 0.00 | 0.05 | 0.03 | 92 | 1013.8 |
| 20260904185851 | 87 | 109 | 4.0 | 9.0 | 0.00 | 0.05 | 0.03 | 92 | 1013.9 |
| 20260904185345 | 87 | 108 | 3.0 | 10.0 | 0.00 | 0.06 | 0.03 | 92 | 1014.0 |
| 20260904184848 | 87 | 153 | 5.0 | 10.0 | 0.00 | 0.06 | 0.03 | 92 | 1014.0 |
| 20260904184356 | 87 | 132 | 4.0 | 10.0 | 0.00 | 0.06 | 0.03 | 92 | 1014.0 |
| 20260904183820 | 87 | 132 | 4.0 | 12.0 | 0.00 | 0.06 | 0.03 | 92 | 1014.0 |
| 20260904183338 | 87 | 189 | 7.0 | 9.0 | 0.00 | 0.06 | 0.03 | 92 | 1014.1 |
| 20260904182831 | 87 | 161 | 5.0 | 13.0 | 0.00 | 0.06 | 0.03 | 92 | 1014.0 |
| 20260904182357 | 88 | 147 | 5.0 | 13.0 | 0.00 | 0.06 | 0.03 | 92 | 1014.1 |
| 20260904181824 | 88 | 144 | 5.0 | 11.0 | 0.00 | 0.06 | 0.03 | 93 | 1014.2 |
| 20260904181328 | 88 | 222 | 4.0 | 11.0 | 0.00 | 0.06 | 0.03 | 93 | 1014.2 |
| 20260904180841 | 88 | 186 | 3.0 | 7.0 | 0.00 | 0.06 | 0.03 | 93 | 1014.2 |
| 20260904180319 | 88 | 205 | 4.0 | 11.0 | 0.00 | 0.06 | 0.03 | 93 | 1014.2 |
| 20260904175833 | 88 | 216 | 4.0 | 11.0 | 0.00 | 0.06 | 0.03 | 93 | 1014.3 |
| 20260904175339 | 88 | 163 | 4.0 | 9.0 | 0.00 | 0.23 | 0.03 | 94 | 1014.3 |
| 20260904174828 | 88 | 239 | 5.0 | 15.0 | 0.00 | 0.23 | 0.03 | 94 | 1014.2 |
| 20260904174352 | 88 | 208 | 8.0 | 15.0 | 0.00 | 0.23 | 0.03 | 94 | 1014.2 |
| 20260904173859 | 87 | 176 | 2.0 | 11.0 | 0.00 | 0.23 | 0.03 | 95 | 1014.2 |
| 20260904173324 | 87 | 200 | 6.0 | 11.0 | 0.00 | 0.23 | 0.03 | 95 | 1014.3 |
| 20260904172826 | 86 | 225 | 4.0 | 10.0 | 0.00 | 0.23 | 0.03 | 95 | 1014.4 |
| 20260904172330 | 86 | 244 | 4.0 | 8.0 | 0.00 | 0.23 | 0.03 | 95 | 1014.5 |
| 20260904171834 | 86 | 265 | 2.0 | 9.0 | 0.00 | 0.23 | 0.03 | 95 | 1014.6 |
| 20260904171338 | 85 | 106 | 4.0 | 10.0 | 0.00 | 0.23 | 0.03 | 95 | 1014.7 |
| 20260904170907 | 85 | 115 | 6.0 | 10.0 | 0.00 | 0.23 | 0.03 | 95 | 1014.8 |
| 20260904170329 | 85 | 119 | 4.0 | 7.0 | 0.00 | 0.23 | 0.03 | 95 | 1014.9 |
| 20260904165836 | 84 | 210 | 4.0 | 9.0 | 0.00 | 0.23 | 0.03 | 95 | 1014.9 |
| 20260904165321 | 84 | 163 | 5.0 | 12.0 | 0.00 | 0.35 | 0.03 | 94 | 1014.9 |
| 20260904164849 | 84 | 211 | 6.0 | 12.0 | 0.00 | 0.35 | 0.03 | 94 | 1014.7 |
| 20260904164332 | 84 | 15 | 1.0 | 5.0 | 0.00 | 0.35 | 0.03 | 94 | 1014.8 |
| 20260904163818 | 83 | 22 | 3.0 | 5.0 | 0.01 | 0.35 | 0.03 | 95 | 1014.8 |
| 20260904163320 | 83 | 355 | 2.0 | 4.0 | 0.01 | 0.35 | 0.03 | 94 | 1014.8 |
| 20260904162829 | 82 | 355 | 3.0 | 4.0 | 0.01 | 0.35 | 0.03 | 94 | 1014.8 |
| 20260904162333 | 82 | 11 | 2.0 | 4.0 | 0.01 | 0.35 | 0.03 | 94 | 1014.8 |
| 20260904161840 | 82 | 12 | 1.0 | 4.0 | 0.01 | 0.35 | 0.03 | 94 | 1014.8 |
| 20260904161325 | 82 | 351 | 2.0 | 5.0 | 0.01 | 0.35 | 0.03 | 93 | 1014.9 |
| 20260904160828 | 82 | 351 | 4.0 | 6.0 | 0.01 | 0.35 | 0.03 | 93 | 1014.9 |
| 20260904160336 | 82 | 340 | 3.0 | 6.0 | 0.01 | 0.35 | 0.03 | 93 | 1014.9 |
| 20260904155819 | 83 | 303 | 2.0 | 4.0 | 0.01 | 0.35 | 0.03 | 93 | 1014.8 |
| 20260904155322 | 83 | 258 | 1.0 | 3.0 | 0.01 | 0.44 | 0.03 | 93 | 1014.8 |
| 20260904154836 | 83 | 258 | 2.0 | 4.0 | 0.01 | 0.44 | 0.03 | 94 | 1014.9 |
| 20260904154342 | 83 | 259 | 3.0 | 4.0 | 0.01 | 0.44 | 0.03 | 94 | 1014.9 |
| 20260904153827 | 83 | 179 | 2.0 | 5.0 | 0.00 | 0.43 | 0.02 | 94 | 1014.9 |
| 20260904153328 | 83 | 209 | 3.0 | 5.0 | 0.00 | 0.43 | 0.02 | 94 | 1014.8 |
| 20260904152834 | 83 | 125 | 2.0 | 6.0 | 0.00 | 0.43 | 0.02 | 94 | 1014.8 |
| 20260904152318 | 83 | 126 | 3.0 | 8.0 | 0.00 | 0.43 | 0.02 | 94 | 1014.8 |
| 20260904151823 | 83 | 119 | 5.0 | 8.0 | 0.00 | 0.43 | 0.02 | 94 | 1014.7 |
| 20260904151325 | 82 | 126 | 4.0 | 7.0 | 0.00 | 0.43 | 0.02 | 94 | 1014.7 |
| 20260904150854 | 82 | 146 | 2.0 | 6.0 | 0.00 | 0.43 | 0.02 | 94 | 1014.7 |
| 20260904150318 | 82 | 148 | 2.0 | 7.0 | 0.00 | 0.43 | 0.02 | 94 | 1014.6 |
| 20260904145824 | 82 | 149 | 2.0 | 7.0 | 0.00 | 0.43 | 0.02 | 94 | 1014.7 |
| 20260904145325 | 82 | 129 | 2.0 | 4.0 | 0.00 | 0.44 | 0.02 | 94 | 1014.7 |
| 20260904144830 | 81 | 180 | 2.0 | 7.0 | 0.00 | 0.44 | 0.02 | 94 | 1014.6 |
| 20260904144341 | 81 | 173 | 3.0 | 8.0 | 0.00 | 0.44 | 0.02 | 93 | 1014.7 |
| 20260904143825 | 82 | 148 | 2.0 | 8.0 | 0.00 | 0.44 | 0.02 | 93 | 1014.7 |
| 20260904143331 | 82 | 144 | 2.0 | 8.0 | 0.00 | 0.44 | 0.02 | 93 | 1014.8 |
| 20260904142836 | 82 | 153 | 4.0 | 8.0 | 0.00 | 0.44 | 0.02 | 94 | 1014.7 |
| 20260904142320 | 81 | 170 | 3.0 | 8.0 | 0.00 | 0.44 | 0.02 | 94 | 1014.6 |
| 20260904141825 | 81 | 124 | 4.0 | 8.0 | 0.00 | 0.44 | 0.02 | 94 | 1014.5 |
| 20260904141330 | 81 | 147 | 4.0 | 8.0 | 0.00 | 0.44 | 0.02 | 94 | 1014.5 |
| 20260904140902 | 81 | 143 | 1.0 | 8.0 | 0.00 | 0.44 | 0.02 | 93 | 1014.6 |
| 20260904140321 | 81 | 123 | 5.0 | 8.0 | 0.00 | 0.44 | 0.02 | 93 | 1014.5 |
| 20260904135827 | 80 | 197 | 2.0 | 4.0 | 0.00 | 0.44 | 0.02 | 93 | 1014.4 |
| 20260904135329 | 80 | 117 | 1.0 | 4.0 | 0.00 | 0.45 | 0.02 | 93 | 1014.4 |
| 20260904134828 | 80 | 98 | 2.0 | 6.0 | 0.00 | 0.45 | 0.02 | 93 | 1014.4 |
| 20260904134334 | 80 | 85 | 4.0 | 8.0 | 0.00 | 0.45 | 0.02 | 93 | 1014.3 |
| 20260904133817 | 79 | 97 | 4.0 | 8.0 | 0.00 | 0.45 | 0.02 | 93 | 1014.4 |
| 20260904133350 | 79 | 111 | 4.0 | 8.0 | 0.00 | 0.45 | 0.02 | 93 | 1014.4 |
| 20260904132901 | 79 | 103 | 4.0 | 8.0 | 0.00 | 0.45 | 0.02 | 93 | 1014.4 |
| 20260904132342 | 79 | 95 | 3.0 | 6.0 | 0.00 | 0.45 | 0.02 | 93 | 1014.4 |
| 20260904131820 | 79 | 103 | 3.0 | 7.0 | 0.00 | 0.45 | 0.02 | 93 | 1014.3 |
| 20260904131333 | 79 | 78 | 3.0 | 5.0 | 0.00 | 0.45 | 0.02 | 93 | 1014.2 |
| 20260904130840 | 79 | 70 | 3.0 | 4.0 | 0.00 | 0.45 | 0.02 | 93 | 1014.1 |
| 20260904130327 | 79 | 84 | 1.0 | 6.0 | 0.00 | 0.45 | 0.02 | 93 | 1014.0 |
| 20260904125831 | 79 | 97 | 2.0 | 6.0 | 0.00 | 0.45 | 0.02 | 93 | 1014.0 |
| 20260904125335 | 78 | 91 | 1.0 | 6.0 | 0.00 | 0.45 | 0.02 | 93 | 1014.0 |
| 20260904124820 | 78 | 101 | 3.0 | 6.0 | 0.00 | 0.45 | 0.02 | 93 | 1013.9 |
| 20260904124326 | 78 | 103 | 3.0 | 6.0 | 0.00 | 0.45 | 0.02 | 93 | 1013.8 |
| 20260904123828 | 78 | 96 | 2.0 | 4.0 | 0.00 | 0.45 | 0.02 | 93 | 1013.8 |
| 20260904123329 | 78 | 107 | 2.0 | 4.0 | 0.00 | 0.45 | 0.02 | 93 | 1013.8 |
| 20260904122836 | 78 | 109 | 2.0 | 4.0 | 0.00 | 0.45 | 0.02 | 93 | 1013.6 |
| 20260904122320 | 78 | 100 | 2.0 | 4.0 | 0.00 | 0.45 | 0.02 | 93 | 1013.6 |
| 20260904121823 | 77 | 115 | 1.0 | 4.0 | 0.00 | 0.45 | 0.02 | 93 | 1013.6 |
| 20260904121329 | 77 | 119 | 2.0 | 4.0 | 0.00 | 0.45 | 0.02 | 93 | 1013.5 |
| 20260904120844 | 77 | 126 | 2.0 | 4.0 | 0.00 | 0.45 | 0.02 | 93 | 1013.3 |
| 20260904120326 | 77 | 126 | 2.0 | 4.0 | 0.00 | 0.45 | 0.02 | 93 | 1013.3 |
| 20260904115831 | 77 | 117 | 2.0 | 6.0 | 0.00 | 0.45 | 0.02 | 93 | 1013.2 |
| 20260904115337 | 77 | 107 | 3.0 | 6.0 | 0.00 | 0.45 | 0.02 | 93 | 1013.3 |
| 20260904114841 | 77 | 111 | 3.0 | 6.0 | 0.00 | 0.45 | 0.02 | 93 | 1013.3 |
| 20260904114332 | 77 | 101 | 2.0 | 6.0 | 0.00 | 0.45 | 0.02 | 93 | 1013.1 |
| 20260904113821 | 77 | 85 | 2.0 | 6.0 | 0.00 | 0.45 | 0.02 | 93 | 1013.1 |
| 20260904113347 | 78 | 82 | 2.0 | 6.0 | 0.00 | 0.45 | 0.02 | 93 | 1013.1 |
| 20260904112832 | 78 | 101 | 3.0 | 4.0 | 0.00 | 0.45 | 0.02 | 93 | 1013.1 |
| 20260904112357 | 78 | 107 | 2.0 | 4.0 | 0.00 | 0.45 | 0.02 | 93 | 1013.1 |
| 20260904111823 | 77 | 106 | 2.0 | 4.0 | 0.00 | 0.45 | 0.02 | 93 | 1013.0 |
| 20260904111329 | 78 | 119 | 2.0 | 4.0 | 0.00 | 0.45 | 0.02 | 93 | 1012.9 |
| 20260904110836 | 78 | 124 | 2.0 | 6.0 | 0.00 | 0.45 | 0.02 | 93 | 1012.9 |
| 20260904110322 | 78 | 126 | 3.0 | 6.0 | 0.00 | 0.45 | 0.02 | 93 | 1013.0 |
| 20260904105829 | 78 | 115 | 3.0 | 4.0 | 0.00 | 0.45 | 0.02 | 93 | 1013.0 |
| 20260904105354 | 78 | 130 | 1.0 | 3.0 | 0.00 | 0.45 | 0.02 | 93 | 1013.0 |
| 20260904104819 | 78 | 130 | 2.0 | 3.0 | 0.00 | 0.45 | 0.02 | 93 | 1013.0 |
| 20260904104323 | 77 | 130 | 2.0 | 3.0 | 0.00 | 0.45 | 0.02 | 93 | 1013.0 |